Regional Weather Roundup
Issued by NWS

Home | Current Version | Previous Version | Text Only | Print | Product List | Glossary Off
Versions: 1 2 3 4 5 6 7 8 9 10 11 12 13 14 15 16 17 18 19 20 21 22 23 24 25 26 27 28 29 30 31 32 33 34 35 36 37 38 39 40 41 42 43 44 45 46 47 48 49 50

000
ASUS45 KBOU 282307
RWRCO

WEATHER ROUNDUP FOR COLORADO
NATIONAL WEATHER SERVICE DENVER/BOULDER CO
400 PM MST SAT FEB 28 2015

NOTE: "FAIR" INDICATES FEW OR NO CLOUDS BELOW 12000 FEET WITH NO
SIGNIFICANT WEATHER AND/OR OBSTRUCTIONS TO VISIBILITY.

COZ001>005-013-030-031-010000-
...NORTHWEST COLORADO...

CITY           SKY/WX    TMP DP  RH WIND       PRES   REMARKS
CRAIG          CLOUDY    40  12  32 CALM      29.72
HAYDEN         PTSUNNY   36  10  35 CALM      29.71S
MEEKER         LGT SNOW  34  25  69 NW5       29.73R WCI  30
MOUNT WERNER   NOT AVBL
STEAMBOAT SPGS CLOUDY    32  13  45 CALM      29.71R
WALDEN         CLOUDY    30  12  47 CALM      29.72S
$$

COZ006>008-011-010000-
...WEST CENTRAL VALLEYS...

CITY           SKY/WX    TMP DP  RH WIND       PRES   REMARKS
GRAND JUNCTION PTSUNNY   42  27  55 S12       29.73R
MONTROSE       CLOUDY    31  28  89 W3        29.79R
EAGLE          PTSUNNY   36  18  48 SW5       29.76R
RIFLE          CLOUDY    43  17  35 CALM      29.71S
DELTA          PTSUNNY   42  32  68 NE9       29.78R
NUCLA          CLOUDY    37  28  70 S14G21    29.80R
$$

COZ017>023-064>068-010000-
...SOUTHWEST COLORADO...

CITY           SKY/WX    TMP DP  RH WIND       PRES   REMARKS
DURANGO        LGT SNOW  30  28  92 CALM      29.83R FOG
CORTEZ         CLOUDY    35  33  92 CALM      29.81S
PAGOSA SPRINGS LGT SNOW  30  30  98 CALM      29.83R VSB 3/4
TELLURIDE      LGT SNOW  29  24  79 W9        29.78R WCI  21
WOLF CREEK PAS HVY SNOW  16  14  93 SW24G33   29.80R VSB<1/4 WCI  -3
$$

COZ009-010-012-014-032>034-037-058>063-010000-
...CENTRAL COLORADO...

CITY           SKY/WX    TMP DP  RH WIND       PRES   REMARKS
ASPEN          LGT SNOW  29  22  75 N5        29.73R WCI  24
BUENA VISTA    LGT SNOW  27  23  86 CALM      29.78S VSB 3/4
COPPER MTN     LGT SNOW  19  12  73 S12       29.73R VSB 3/4 WCI   7
BERTHOUD PASS  LGT SNOW   9   1  72 SE15      29.73R VSB 1   WCI  -8
COTTONWOOD PAS SNOW      27  23  86 SE8       29.76R VSB 1/2 WCI  18
GUNNISON       PTSUNNY   27  19  74 CALM      29.80S
KREMMLING      CLOUDY    32   5  32 CALM      29.74S
LEADVILLE      LGT SNOW  18  16  92 S14       29.73R FOG     WCI   4
SALIDA         CLOUDY    33  22  62 CALM      29.86R
SUNLIGHT       LGT SNOW  25  21  86 CALM        N/A
WILKERSON PASS LGT SNOW  19  16  86 SW3       29.78S
$$

COZ069>075-010000-
...SAN LUIS VALLEY/SANGRE DE CRISTO MOUNTAINS...

CITY           SKY/WX    TMP DP  RH WIND       PRES   REMARKS
ALAMOSA        LGT SNOW  26  21  81 SW3       29.82R
LA VETA PASS   SNOW      21  19  93 S5        29.79S VSB 1/2 WCI  15
SAGUACHE       CLOUDY    27  21  80 S7        29.82R WCI  19
$$

COZ035-036-038>040-010000-
...NORTHERN COLORADO FRONT RANGE...

CITY           SKY/WX    TMP DP  RH WIND       PRES   REMARKS
DENVER INTL AP PTSUNNY   19  11  70 CALM      29.94S
DMNS CITY PARK   N/A     22  12  63 N3        29.96R
AURORA         PTSUNNY   21  11  64 NE6       29.94R WCI  13
FRONT RANGE AP NOT AVBL
ERIE MUNI ARPT MOSUNNY   23  13  66 CALM      29.96S
BOULDER MUN AP MOSUNNY   25  14  63 NW3       29.94S
CENTENNIAL     PTSUNNY   21  11  65 N9        29.91S WCI  11
BROOMFIELD     PTSUNNY   21  14  73 N5        29.93S WCI  15
FORT COLLINS   CLOUDY    27  16  63 NE7       29.95F WCI  19
LONGMONT       MOSUNNY   30  15  53 W3        29.98S
$$

COZ041-046-047-076>085-087-088-010000-
...PIKES PEAK/PALMER DIVIDE AND SOUTHERN FOOTHILLS...

CITY           SKY/WX    TMP DP  RH WIND       PRES   REMARKS
COLO. SPRINGS  PTSUNNY   18  12  77 SE7       29.91R WCI   9
A. F. ACADEMY  SUNNY     21  13  71 S9        29.87R WCI  10
ELLICOTT       NOT AVBL
FALCON         SUNNY     20  13  74 S3        29.88R
FORT CARSON    MOSUNNY   19  13  77 S8        29.91R WCI   9
LIMON          SUNNY     20  11  68 N5        29.94R WCI  13
MONUMENT HILL  SUNNY     19  10  68 N6        29.86R WCI  11
TRINIDAD       CLOUDY    22  14  71 SE5       29.91S WCI  16
$$

COZ042>045-048>051-090-091-010000-
...NORTHEAST COLORADO...

CITY           SKY/WX    TMP DP  RH WIND       PRES   REMARKS
GREELEY ARPT   MOSUNNY   28  14  54 NE9       29.95S WCI  20
AKRON          PTSUNNY   22  15  75 SE8       29.97F WCI  12
BURLINGTON     CLOUDY    19  12  74 SE8       30.03S HAZE    WCI   9
WRAY           FLURRIES  24  13  63 S3        30.07S
STERLING       PTSUNNY   30  16  55 CALM      30.00S
HOLYOKE        NOT AVBL
FORT MORGAN    SUNNY     27  12  53 E6        29.98S WCI  20
$$

COZ086-089-092>099-010000-
...SOUTHEAST COLORADO...

CITY           SKY/WX    TMP DP  RH WIND       PRES   REMARKS
PUEBLO         MOSUNNY   20  12  71 S5        29.98R WCI  13
LA JUNTA       MOSUNNY   23  14  68 CALM      30.02R
LAMAR          CLOUDY    26  15  63 CALM      30.02S
SPRINGFIELD      N/A     23  15  71 N6        29.99R WCI  16
$$



USA.gov is the U.S. government's official web portal to all federal, state and local government web resources and services.